Weather History for Fes-Sais, Morocco

Change the Weather History Date:

Friday, February 8, 2013

  Actual Average Record
Temperature  
Mean Temperature 46 °F -  
Max Temperature 62 °F 62 °F 69 °F (2008)
Min Temperature 30 °F 39 °F 30 °F (2013)
Degree Days  
Heating Degree Days 19    
Moisture  
Dew Point 35 °F    
Average Humidity 72    
Maximum Humidity 93    
Minimum Humidity 43    
Precipitation  
Precipitation 0.00 in 0.13 in - ()
Sea Level Pressure  
Sea Level Pressure 30.13 in    
Wind  
Wind Speed 7 mph ()    
Max Wind Speed 12 mph    
Max Gust Speed -    
Visibility 6.1 miles    
Events      
Averages and records for this station are not official NWS values.
T = Trace of Precipitation, MM = Missing Value Source: Averaged Metar Reports

Daily Weather History Graph

Daily Weather History Graph

Search for Another Location

Airport:

Trip Planner

Search our weather history database for the weather conditions in past years. The results will help you decide how hot, cold, wet, or windy it might be!

Date:

Astronomy

Feb. 08, 2013 Rise Set
Actual Time 7:11 AM WET 5:57 PM WET
Civil Twilight 6:45 AM WET 6:23 PM WET
Nautical Twilight 6:15 AM WET 6:52 PM WET
Astronomical Twilight 5:46 AM WET 7:22 PM WET
Moon 5:26 AM WET (2/8) 4:16 PM WET (2/8)
Length of Visible Light 11h 38m
Length of Day
10h 46m
Waning Crescent, 4% of the Moon is Illuminated
Feb 8
Waning Crescent
Feb 10
New
Feb 17
First Quarter
Feb 25
Full
Mar 4
Last Quarter

Hourly Weather History & Observations

Time (WET) Temp. Windchill Dew Point Humidity Pressure Visibility Wind Dir Wind Speed Gust Speed Precip Events Conditions
12:00 AM 35 °F - 32 °F 84% 30.27 in 6 mi SSE 8.1 mph - -  
12:00 AM 35.6 °F 29.2 °F 32.0 °F 87% 30.18 in - SSE 8.1 mph - N/A   Clear
3:00 AM 32 °F - 30 °F 89% 30.23 in 6 mi SSE 9.2 mph - -  
3:00 AM 32.0 °F 24.2 °F 30.2 °F 93% 30.12 in - SSE 9.2 mph - N/A   Clear
4:00 AM 32.0 °F 25.6 °F 30.2 °F 93% 30.12 in - SSE 6.9 mph - N/A   Clear
5:00 AM 30.2 °F 24.3 °F 28.4 °F 93% 30.09 in - SSE 5.8 mph - N/A   Clear
6:00 AM 30 °F - 29 °F 92% 30.22 in 6 mi South 3.5 mph - -  
6:00 AM 30.2 °F 26.7 °F 28.4 °F 93% 30.12 in - South 3.5 mph - N/A   Clear
7:00 AM 32.0 °F 27.5 °F 30.2 °F 93% 30.12 in - South 4.6 mph - N/A   Clear
8:00 AM 33.8 °F 26.4 °F 30.2 °F 87% 30.12 in - South 9.2 mph - N/A   Clear
9:00 AM 44.6 °F 40.7 °F 35.6 °F 71% 30.15 in - South 6.9 mph - N/A   Clear
10:00 AM - - - N/A% 30.15 in - Variable 3.5 mph - N/A   Clear
11:00 AM 55.4 °F - 41.0 °F 58% 30.15 in - WNW 4.6 mph - N/A   Clear
12:00 PM 55 °F - 40 °F 45% 30.15 in 6 mi NW 8.1 mph - -  
12:00 PM 55.4 °F - 39.2 °F 54% 30.12 in - NW 8.1 mph - N/A   Clear
1:00 PM 59.0 °F - 39.2 °F 48% 30.12 in - WNW 9.2 mph - N/A   Clear
2:00 PM 55.4 °F - 42.8 °F 63% 30.09 in - NW 11.5 mph - N/A   Clear
3:00 PM 59.0 °F - 42.8 °F 55% 30.09 in 6.2 mi WNW 9.2 mph - N/A   Partly Cloudy
4:00 PM 57.2 °F - 41.0 °F 55% 30.06 in 6.2 mi West 11.5 mph - N/A   Partly Cloudy
5:00 PM 55.4 °F - 37.4 °F 51% 30.06 in 6.2 mi West 11.5 mph - N/A   Partly Cloudy
6:00 PM 51 °F - 35 °F 43% 30.11 in 6 mi WNW 8.1 mph - -  
6:00 PM 50.0 °F - 35.6 °F 58% 30.09 in - WNW 8.1 mph - N/A   Clear
7:00 PM 44.6 °F 41.4 °F 39.2 °F 81% 30.09 in - West 5.8 mph - N/A   Clear
8:00 PM 42.8 °F 38.0 °F 35.6 °F 76% 30.12 in - West 8.1 mph - N/A   Clear
9:00 PM 42 °F - 35 °F 68% 30.19 in 6 mi West 11.5 mph - -  
9:00 PM 42.8 °F 37.0 °F 33.8 °F 70% 30.12 in - WSW 10.4 mph - N/A   Clear
10:00 PM 41.0 °F 35.2 °F 33.8 °F 76% 30.15 in - West 9.2 mph - N/A   Clear
11:00 PM 41.0 °F 36.4 °F 35.6 °F 81% 30.15 in - SSW 6.9 mph - N/A   Clear